星链-5594 (STARLINK-5594 )

导读

STARLINK-5594是美国SpaceX星链星座中的一颗卫星,于2023年3月3日发射入轨,星链项目旨在为全球提供高速卫星互联网接入服务,这颗卫星加入后进一步扩展了星链星座的网络覆盖能力与服务规模,支撑星链在通信、导航等多领域的应用部署。

基本信息
目录编号:
55742
目录名称:
STARLINK-5594
国际标识:
2023-028B
轨道中心:
EARTH
卫星名称:
星链-5594
卫星全名:
星链-5594 (STARLINK-5594 )
卫星状态:
在轨 (已飞行1200 天)
发射日期:
2023-03-03 UTC
国别 :
美国 (US)
星等 :
--
轨道信息
数据来源 国际轨道数据 AOE轨道数据
星历时间 2026-06-15T04:55:49+0800
5小时前
查看轨道信息
2026-06-13T17:00:00+0800
1天前
查看轨道信息
半长轴 6950.201km 6950.185km
偏心率 0.0002317 0.0002333
轨道倾角 70.000° 70.001°
近地点辐角 270.042° 279.438°
升交点赤经 359.567° 3.342°
平近点角 90.047° 287.655°
近地点 570.453km 570.426km
远地点 573.675km 573.67km
周期 96.107分钟 96.107分钟
每日圈数 14.983277 14.983327
详细信息
固有亮度:
5
最大亮度:
2.5
卫星平台:
Starlink v1.5
覆盖范围:
全球
运营商:
太空探索技术公司
运营商所在国:
美国
制造商(研发单位):
太空探索技术公司
制造商所在国:
美国
使用方式:
暂无
卫星简介
星链(Starlink)计划是由太空探索技术公司(SpaceX)提出的一个巨型低轨卫星互联网星座项目,计划在2019年至2024年间在太空搭建由约1.2万颗卫星组成的“星链”网络,其中1584颗将部署在地球上空550千米处的近地轨道,并从2020年开始工作。该卫星仍在工作。
2D轨道图
3D轨道图
轨道高度分析图
轨道倾角分析图
轨道综合分析图
查看轨道综合分析图